Fallon NAS, NV

8:38 PM PDT on June 22, 2017 (GMT -0700)
Fallon Naval Air Station

Weather History for KNFL - March, 2012

Change the Weather History Date:

Saturday, March 31, 2012

  Actual Average Record
Temperature  
Mean Temperature 55 °F -  
Max Temperature 71 °F 62 °F 84 °F (1966)
Min Temperature 39 °F 30 °F 14 °F (1929)
Degree Days  
Heating Degree Days 10    
Growing Degree Days 5 (Base 50)    
Moisture  
Dew Point 21 °F    
Average Humidity 30    
Maximum Humidity 59    
Minimum Humidity 9    
Precipitation  
Precipitation 0.00 in - - ()
Sea Level Pressure  
Sea Level Pressure 29.60 in    
Wind  
Wind Speed 20 mph (SW)    
Max Wind Speed 43 mph    
Max Gust Speed 60 mph    
Visibility 7 miles    
Events      
Averages and records for this station are not official NWS values.
T = Trace of Precipitation, MM = Missing Value Source: NWS Daily Summary

Daily Weather History Graph

Daily Weather History Graph

Search for Another Location

Airport or City:

Trip Planner

Search our weather history database for the weather conditions in past years. The results will help you decide how hot, cold, wet, or windy it might be!

Date:

Astronomy

Mar. 31, 2012 Rise Set
Actual Time 6:39 AM PDT 7:18 PM PDT
Civil Twilight 6:12 AM PDT 7:45 PM PDT
Nautical Twilight 5:40 AM PDT 8:17 PM PDT
Astronomical Twilight 5:08 AM PDT 8:50 PM PDT
Moon 12:53 PM PDT (3/31) 2:37 AM PDT (3/31)
Length of Visible Light 13h 32m
Length of Day
12h 38m
First Quarter, 60% of the Moon is Illuminated
Mar 31
First Quarter
Apr 6
Full
Apr 13
Last Quarter
Apr 21
New
Apr 29
First Quarter

Hourly Weather History & Observations

Time (PDT) Temp. Windchill Dew Point Humidity Pressure Visibility Wind Dir Wind Speed Gust Speed Precip Events Conditions
12:56 AM 59.0 °F - 35.1 °F 41% 29.73 in 10.0 mi SW 12.7 mph - N/A   Clear
1:56 AM 52.0 °F - 35.1 °F 53% 29.71 in 10.0 mi ESE 5.8 mph - N/A   Clear
2:56 AM 50.0 °F - 34.0 °F 54% 29.70 in 10.0 mi West 3.5 mph - N/A   Clear
3:56 AM 46.9 °F - 33.1 °F 59% 29.68 in 10.0 mi SSE 6.9 mph - N/A   Clear
4:56 AM 52.0 °F - 33.1 °F 49% 29.65 in 10.0 mi SSW 5.8 mph - N/A   Clear
5:56 AM 48.0 °F - 33.1 °F 56% 29.63 in 10.0 mi SSW 5.8 mph - N/A   Clear
6:56 AM 48.9 °F - 30.9 °F 50% 29.62 in 10.0 mi West 3.5 mph - N/A   Clear
7:56 AM 54.0 °F - 28.0 °F 37% 29.61 in 10.0 mi Calm Calm - N/A   Clear
8:56 AM 61.0 °F - 23.0 °F 23% 29.59 in 10.0 mi WSW 17.3 mph 23.0 mph N/A   Clear
9:03 AM 62.6 °F - 23.0 °F 22% 29.63 in 10.0 mi WSW 19.6 mph 25.3 mph N/A   Partly Cloudy
9:56 AM 64.0 °F - 21.0 °F 19% 29.57 in 10.0 mi West 16.1 mph 24.2 mph N/A   Partly Cloudy
10:56 AM 69.1 °F - 19.0 °F 15% 29.55 in 10.0 mi WSW 29.9 mph 40.3 mph N/A   Scattered Clouds
11:40 AM 69.8 °F - 15.8 °F 13% 29.58 in 2.5 mi SW 41.4 mph 52.9 mph N/A   Widespread Dust
11:56 AM 69.1 °F - 15.1 °F 13% 29.54 in 1.5 mi SW 41.4 mph 58.7 mph N/A   Widespread Dust
12:03 PM 69.8 °F - 15.8 °F 13% 29.57 in 1.2 mi SW 38.0 mph 58.7 mph N/A   Widespread Dust
12:56 PM 69.1 °F - 14.0 °F 12% 29.52 in 1.2 mi SW 41.4 mph 54.1 mph N/A   Widespread Dust
1:22 PM 69.8 °F - 12.2 °F 11% 29.54 in 3.0 mi SW 39.1 mph 48.3 mph N/A   Widespread Dust
1:56 PM 70.0 °F - 10.9 °F 10% 29.49 in 1.8 mi SSW 38.0 mph 52.9 mph N/A   Widespread Dust
2:06 PM 69.8 °F - 10.4 °F 10% 29.52 in 2.0 mi South 34.5 mph 52.9 mph N/A   Widespread Dust
2:28 PM 69.8 °F - 10.4 °F 10% 29.50 in 6.0 mi South 38.0 mph 51.8 mph N/A   Widespread Dust
2:41 PM 71.6 °F - 10.4 °F 9% 29.49 in 5.0 mi SSW 38.0 mph 48.3 mph N/A   Widespread Dust
2:47 PM 71.6 °F - 12.2 °F 10% 29.50 in 1.8 mi SSW 31.1 mph 59.8 mph N/A   Widespread Dust
2:54 PM 69.8 °F - 12.2 °F 11% 29.49 in 6.0 mi SSW 38.0 mph 57.5 mph N/A   Widespread Dust
2:56 PM 70.0 °F - 12.0 °F 11% 29.47 in 6.0 mi SW 36.8 mph 48.3 mph N/A   Widespread Dust
3:03 PM 69.8 °F - 12.2 °F 11% 29.51 in 7.0 mi SSW 32.2 mph 44.9 mph N/A   Widespread Dust
3:27 PM 55.4 °F - 30.2 °F 38% 29.54 in 3.0 mi West 42.6 mph 52.9 mph N/A   Widespread Dust
3:46 PM 53.6 °F - 28.4 °F 38% 29.56 in 2.5 mi West 42.6 mph 54.1 mph N/A   Widespread Dust
3:56 PM 54.0 °F - 27.0 °F 35% 29.54 in 6.0 mi West 38.0 mph 52.9 mph N/A   Widespread Dust
4:11 PM 53.6 °F - 24.8 °F 33% 29.60 in 7.0 mi West 33.4 mph 47.2 mph N/A   Widespread Dust
4:18 PM 53.6 °F - 24.8 °F 33% 29.60 in 9.0 mi West 34.5 mph 46.0 mph N/A   Widespread Dust
4:56 PM 50.0 °F - 26.1 °F 39% 29.58 in 10.0 mi West 31.1 mph 41.4 mph N/A   Mostly Cloudy
5:56 PM 46.0 °F 36.9 °F 18.0 °F 33% 29.65 in 9.0 mi West 28.8 mph 39.1 mph N/A   Mostly Cloudy
6:56 PM 44.1 °F 34.6 °F 18.0 °F 35% 29.67 in 10.0 mi WSW 26.5 mph 38.0 mph N/A   Overcast
7:56 PM 43.0 °F 33.5 °F 19.9 °F 40% 29.68 in 10.0 mi WSW 24.2 mph 34.5 mph N/A   Overcast
8:56 PM 42.1 °F 31.9 °F 19.9 °F 41% 29.70 in 10.0 mi WSW 26.5 mph - N/A   Overcast
9:56 PM 41.0 °F 34.3 °F 21.0 °F 45% 29.73 in 10.0 mi WSW 11.5 mph - N/A   Scattered Clouds
10:56 PM 39.0 °F 31.4 °F 21.0 °F 49% 29.73 in 10.0 mi SSW 12.7 mph - N/A   Clear
11:56 PM 39.9 °F 30.8 °F 19.0 °F 43% 29.71 in 10.0 mi SW 18.4 mph 31.1 mph N/A   Clear